Location: Dötzum
(52.0808°N, 9.8063°E)
Time: 06:20:19
(UTC+00:00)

Gblst 52 Del rocket - Pass Details

Date: 27 May 2022
Orbit: 805 x 1365 km, 51.5° (Epoch: 26 June)

Event Time Altitude Azimuth Distance (km) Brightness Sun altitude
Rises 00:59:01 0° 272° (W) 3,585 7.2 -13.4°
Reaches altitude 10° 01:01:41 10° 272° (W) 2,571 6.5 -13.2°
Maximum altitude 01:07:38 86° 186° (S) 844 4.1 -12.8°
Drops below altitude 10° 01:13:09 10° 97° (E) 2,391 6.8 -12.5°
Sets 01:15:34 0° 97° (E) 3,316 7.6 -12.3°
